Time,TemperatureF,DewpointF,PressureIn,WindDirection,WindDirectionDegrees,WindSpeedMPH,WindSpeedGustMPH,Humidity,HourlyPrecipIn,Conditions,Clouds,dailyrainin,SoftwareType,DateUTC
2013-05-18 00:01:00,67.3,35.7,29.55,North,360,0.0,0.0,31,0.00,,---,0.00,VWS V12.08,2013-05-18 04:01:00,
2013-05-18 00:02:00,67.3,35.7,29.55,North,360,0.0,0.0,31,0.00,,---,0.00,VWS V12.08,2013-05-18 04:02:00,
2013-05-18 00:03:00,67.3,35.7,29.55,North,360,0.0,0.0,31,0.00,,---,0.00,VWS V12.08,2013-05-18 04:03:00,
2013-05-18 00:04:00,67.3,35.7,29.55,North,360,0.0,0.0,31,0.00,,---,0.00,VWS V12.08,2013-05-18 04:04:00,
2013-05-18 00:09:00,67.3,35.7,29.55,North,360,0.0,0.0,31,0.00,,---,0.00,VWS V12.08,2013-05-18 04:09:00,
2013-05-18 00:11:00,67.3,35.7,29.55,North,360,0.0,0.0,31,0.00,,---,0.00,VWS V12.08,2013-05-18 04:11:00,
2013-05-18 00:16:00,67.3,35.7,29.55,North,360,1.0,1.0,31,0.00,,---,0.00,VWS V12.08,2013-05-18 04:16:00,
2013-05-18 00:21:00,67.3,35.7,29.55,North,360,0.0,2.0,31,0.00,,---,0.00,VWS V12.08,2013-05-18 04:21:00,
2013-05-18 00:26:00,67.3,35.7,29.55,SSW,196,0.0,2.0,31,0.00,,---,0.00,VWS V12.08,2013-05-18 04:26:00,
2013-05-18 00:31:00,67.1,35.5,29.55,North,360,0.0,3.0,31,0.00,,---,0.00,VWS V12.08,2013-05-18 04:31:00,
2013-05-18 00:36:00,66.9,36.1,29.55,North,360,0.0,3.0,32,0.00,,---,0.00,VWS V12.08,2013-05-18 04:36:00,
2013-05-18 00:41:00,66.9,36.1,29.55,North,360,0.0,3.0,32,0.00,,---,0.00,VWS V12.08,2013-05-18 04:41:00,
2013-05-18 00:46:00,66.8,36.0,29.55,North,360,1.0,3.0,32,0.00,,---,0.00,VWS V12.08,2013-05-18 04:46:00,
2013-05-18 00:51:00,66.8,36.0,29.55,North,360,0.0,3.0,32,0.00,,---,0.00,VWS V12.08,2013-05-18 04:51:00,
2013-05-18 00:56:00,66.6,36.6,29.55,North,360,0.0,3.0,33,0.00,,---,0.00,VWS V12.08,2013-05-18 04:56:00,
2013-05-18 01:01:00,66.3,37.8,29.54,North,360,1.0,1.0,35,0.00,,---,0.00,VWS V12.08,2013-05-18 05:01:00,
2013-05-18 01:06:00,66.0,39.7,29.54,North,360,2.0,2.0,38,0.00,,---,0.00,VWS V12.08,2013-05-18 05:06:00,
2013-05-18 01:11:00,65.6,40.0,29.54,North,360,1.0,2.0,39,0.00,,---,0.00,VWS V12.08,2013-05-18 05:11:00,
2013-05-18 01:16:00,65.3,39.7,29.55,North,360,1.0,3.0,39,0.00,,---,0.00,VWS V12.08,2013-05-18 05:16:00,
2013-05-18 01:21:00,65.2,39.6,29.55,North,360,1.0,3.0,39,0.00,,---,0.00,VWS V12.08,2013-05-18 05:21:00,
2013-05-18 01:26:00,65.0,38.8,29.55,SSW,198,0.0,3.0,38,0.00,,---,0.00,VWS V12.08,2013-05-18 05:26:00,
2013-05-18 01:31:00,65.2,39.0,29.55,North,360,2.0,2.0,38,0.00,,---,0.00,VWS V12.08,2013-05-18 05:31:00,
2013-05-18 01:36:00,65.5,38.6,29.55,North,360,0.0,2.0,37,0.00,,---,0.00,VWS V12.08,2013-05-18 05:36:00,
2013-05-18 01:41:00,65.3,41.0,29.55,North,360,0.0,2.0,41,0.00,,---,0.00,VWS V12.08,2013-05-18 05:41:00,
2013-05-18 01:46:00,65.0,42.0,29.55,North,360,0.0,2.0,43,0.00,,---,0.00,VWS V12.08,2013-05-18 05:46:00,
2013-05-18 01:51:00,64.5,42.1,29.55,North,360,0.0,2.0,44,0.00,,---,0.00,VWS V12.08,2013-05-18 05:51:00,
2013-05-18 01:56:00,64.3,42.5,29.55,North,360,0.0,2.0,45,0.00,,---,0.00,VWS V12.08,2013-05-18 05:56:00,
2013-05-18 02:01:00,64.2,42.4,29.55,North,360,0.0,0.0,45,0.00,,---,0.00,VWS V12.08,2013-05-18 06:01:00,
2013-05-18 02:06:00,64.3,41.9,29.55,North,360,0.0,0.0,44,0.00,,---,0.00,VWS V12.08,2013-05-18 06:06:00,
2013-05-18 02:11:00,64.7,41.7,29.55,North,360,0.0,2.0,43,0.00,,---,0.00,VWS V12.08,2013-05-18 06:11:00,
2013-05-18 02:16:00,65.0,42.6,29.55,North,360,2.0,2.0,44,0.00,,---,0.00,VWS V12.08,2013-05-18 06:16:00,
2013-05-18 02:21:00,65.2,42.2,29.55,North,360,0.0,3.0,43,0.00,,---,0.00,VWS V12.08,2013-05-18 06:21:00,
2013-05-18 02:26:00,65.0,42.6,29.55,North,360,0.0,3.0,44,0.00,,---,0.00,VWS V12.08,2013-05-18 06:26:00,
2013-05-18 02:31:00,64.8,42.4,29.55,North,360,0.0,0.0,44,0.00,,---,0.00,VWS V12.08,2013-05-18 06:31:00,
2013-05-18 02:36:00,64.7,42.3,29.55,North,360,0.0,0.0,44,0.00,,---,0.00,VWS V12.08,2013-05-18 06:36:00,
2013-05-18 02:41:00,64.8,41.8,29.55,North,360,0.0,1.0,43,0.00,,---,0.00,VWS V12.08,2013-05-18 06:41:00,
2013-05-18 02:46:00,64.5,42.1,29.55,North,360,0.0,1.0,44,0.00,,---,0.00,VWS V12.08,2013-05-18 06:46:00,
2013-05-18 02:51:00,64.3,42.5,29.55,North,360,1.0,1.0,45,0.00,,---,0.00,VWS V12.08,2013-05-18 06:51:00,
2013-05-18 02:56:00,64.0,41.7,29.55,North,360,1.0,1.0,44,0.00,,---,0.00,VWS V12.08,2013-05-18 06:56:00,
2013-05-18 03:01:00,63.7,42.0,29.56,North,360,0.0,1.0,45,0.00,,---,0.00,VWS V12.08,2013-05-18 07:01:00,
2013-05-18 03:06:00,63.4,41.7,29.56,WSW,250,0.0,1.0,45,0.00,,---,0.00,VWS V12.08,2013-05-18 07:06:00,
2013-05-18 03:11:00,63.2,42.1,29.56,North,360,0.0,1.0,46,0.00,,---,0.00,VWS V12.08,2013-05-18 07:11:00,
2013-05-18 03:16:00,63.1,42.0,29.56,North,360,0.0,1.0,46,0.00,,---,0.00,VWS V12.08,2013-05-18 07:16:00,
2013-05-18 03:21:00,62.9,41.8,29.56,North,360,0.0,3.0,46,0.00,,---,0.00,VWS V12.08,2013-05-18 07:21:00,
2013-05-18 03:26:00,62.7,42.2,29.56,North,360,0.0,3.0,47,0.00,,---,0.00,VWS V12.08,2013-05-18 07:26:00,
2013-05-18 03:31:00,62.6,41.5,29.56,North,360,0.0,0.0,46,0.00,,---,0.00,VWS V12.08,2013-05-18 07:31:00,
2013-05-18 03:36:00,62.6,41.5,29.56,North,360,0.0,0.0,46,0.00,,---,0.00,VWS V12.08,2013-05-18 07:36:00,
2013-05-18 03:41:00,62.6,41.0,29.56,North,360,0.0,0.0,45,0.00,,---,0.00,VWS V12.08,2013-05-18 07:41:00,
2013-05-18 03:46:00,62.6,40.4,29.56,North,360,0.0,0.0,44,0.00,,---,0.00,VWS V12.08,2013-05-18 07:46:00,
2013-05-18 03:51:00,62.7,39.9,29.56,North,360,0.0,2.0,43,0.00,,---,0.00,VWS V12.08,2013-05-18 07:51:00,
2013-05-18 03:56:00,63.1,39.0,29.56,North,360,1.0,2.0,41,0.00,,---,0.00,VWS V12.08,2013-05-18 07:56:00,
2013-05-18 04:01:00,63.4,38.7,29.57,North,360,0.0,0.0,40,0.00,,---,0.00,VWS V12.08,2013-05-18 08:01:00,
2013-05-18 04:06:00,63.5,38.8,29.57,North,360,0.0,0.0,40,0.00,,---,0.00,VWS V12.08,2013-05-18 08:06:00,
2013-05-18 04:11:00,63.4,38.7,29.57,North,360,2.0,2.0,40,0.00,,---,0.00,VWS V12.08,2013-05-18 08:11:00,
2013-05-18 04:16:00,63.1,39.0,29.57,West,267,0.0,2.0,41,0.00,,---,0.00,VWS V12.08,2013-05-18 08:16:00,
2013-05-18 04:21:00,63.1,39.7,29.57,West,267,0.0,2.0,42,0.00,,---,0.00,VWS V12.08,2013-05-18 08:21:00,
2013-05-18 04:26:00,62.9,40.7,29.57,West,267,0.0,2.0,44,0.00,,---,0.00,VWS V12.08,2013-05-18 08:26:00,
2013-05-18 04:31:00,62.9,42.9,29.57,North,360,0.0,4.0,48,0.00,,---,0.00,VWS V12.08,2013-05-18 08:31:00,
2013-05-18 04:36:00,62.6,44.2,29.57,North,360,2.0,4.0,51,0.00,,---,0.00,VWS V12.08,2013-05-18 08:36:00,
2013-05-18 04:41:00,62.4,44.0,29.57,North,360,0.0,4.0,51,0.00,,---,0.00,VWS V12.08,2013-05-18 08:41:00,
2013-05-18 04:46:00,62.1,43.8,29.57,North,360,0.0,4.0,51,0.00,,---,0.00,VWS V12.08,2013-05-18 08:46:00,
2013-05-18 04:51:00,62.1,44.3,29.57,North,360,0.0,4.0,52,0.00,,---,0.00,VWS V12.08,2013-05-18 08:51:00,
2013-05-18 04:56:00,62.3,44.5,29.57,North,360,0.0,4.0,52,0.00,,---,0.00,VWS V12.08,2013-05-18 08:56:00,
2013-05-18 05:01:00,62.4,45.1,29.58,North,360,0.0,3.0,53,0.00,,---,0.00,VWS V12.08,2013-05-18 09:01:00,
2013-05-18 05:06:00,62.6,45.2,29.58,North,360,0.0,3.0,53,0.00,,---,0.00,VWS V12.08,2013-05-18 09:06:00,
2013-05-18 05:11:00,62.4,45.1,29.58,North,360,0.0,3.0,53,0.00,,---,0.00,VWS V12.08,2013-05-18 09:11:00,
2013-05-18 05:16:00,62.0,44.7,29.58,North,360,0.0,3.0,53,0.00,,---,0.00,VWS V12.08,2013-05-18 09:16:00,
2013-05-18 05:21:00,61.8,45.0,29.58,North,360,0.0,3.0,54,0.00,,---,0.00,VWS V12.08,2013-05-18 09:21:00,
2013-05-18 05:26:00,61.3,45.0,29.58,North,360,0.0,3.0,55,0.00,,---,0.00,VWS V12.08,2013-05-18 09:26:00,
2013-05-18 05:31:00,60.9,45.1,29.59,North,360,0.0,0.0,56,0.00,,---,0.00,VWS V12.08,2013-05-18 09:31:00,
2013-05-18 05:36:00,60.9,44.6,29.59,North,360,0.0,1.0,55,0.00,,---,0.00,VWS V12.08,2013-05-18 09:36:00,
2013-05-18 05:41:00,60.9,44.6,29.59,North,360,0.0,1.0,55,0.00,,---,0.00,VWS V12.08,2013-05-18 09:41:00,
2013-05-18 05:46:00,60.7,44.9,29.59,North,360,0.0,1.0,56,0.00,,---,0.00,VWS V12.08,2013-05-18 09:46:00,
2013-05-18 05:51:00,60.7,44.5,29.59,North,360,0.0,2.0,55,0.00,,---,0.00,VWS V12.08,2013-05-18 09:51:00,
2013-05-18 05:56:00,60.5,44.3,29.59,North,360,0.0,2.0,55,0.00,,---,0.00,VWS V12.08,2013-05-18 09:56:00,
2013-05-18 06:01:00,60.4,44.7,29.60,North,360,0.0,1.0,56,0.00,,---,0.00,VWS V12.08,2013-05-18 10:01:00,
2013-05-18 06:06:00,60.4,44.7,29.60,North,360,0.0,1.0,56,0.00,,---,0.00,VWS V12.08,2013-05-18 10:06:00,
2013-05-18 06:11:00,60.4,44.7,29.60,North,360,0.0,1.0,56,0.00,,---,0.00,VWS V12.08,2013-05-18 10:11:00,
2013-05-18 06:16:00,60.2,44.5,29.60,North,360,0.0,3.0,56,0.00,,---,0.00,VWS V12.08,2013-05-18 10:16:00,
2013-05-18 06:21:00,60.2,44.5,29.60,North,360,0.0,3.0,56,0.00,,---,0.00,VWS V12.08,2013-05-18 10:21:00,
2013-05-18 06:26:00,60.4,44.2,29.60,North,360,0.0,3.0,55,0.00,,---,0.00,VWS V12.08,2013-05-18 10:26:00,
2013-05-18 06:31:00,60.5,44.7,29.60,North,360,0.0,2.0,56,0.00,,---,0.00,VWS V12.08,2013-05-18 10:31:00,
2013-05-18 06:36:00,60.7,44.5,29.60,North,360,1.0,2.0,55,0.00,,---,0.00,VWS V12.08,2013-05-18 10:36:00,
2013-05-18 06:41:00,60.9,45.1,29.60,North,360,0.0,2.0,56,0.00,,---,0.00,VWS V12.08,2013-05-18 10:41:00,
2013-05-18 06:46:00,61.0,45.2,29.61,North,360,0.0,2.0,56,0.00,,---,0.00,VWS V12.08,2013-05-18 10:46:00,
2013-05-18 06:51:00,61.0,45.7,29.61,North,360,0.0,4.0,57,0.00,,---,0.00,VWS V12.08,2013-05-18 10:51:00,
2013-05-18 06:56:00,60.9,45.6,29.61,North,360,0.0,4.0,57,0.00,,---,0.00,VWS V12.08,2013-05-18 10:56:00,
2013-05-18 07:01:00,60.9,46.0,29.62,North,360,0.0,4.0,58,0.00,,---,0.00,VWS V12.08,2013-05-18 11:01:00,
2013-05-18 07:06:00,60.9,46.0,29.62,North,360,0.0,4.0,58,0.00,,---,0.00,VWS V12.08,2013-05-18 11:06:00,
2013-05-18 07:11:00,60.7,46.3,29.62,North,360,0.0,4.0,59,0.00,,---,0.00,VWS V12.08,2013-05-18 11:11:00,
2013-05-18 07:16:00,60.9,46.0,29.62,North,360,0.0,4.0,58,0.00,,---,0.00,VWS V12.08,2013-05-18 11:16:00,
2013-05-18 07:21:00,61.0,46.6,29.62,North,360,2.0,4.0,59,0.00,,---,0.00,VWS V12.08,2013-05-18 11:21:00,
2013-05-18 07:26:00,60.7,46.3,29.62,North,360,0.0,4.0,59,0.00,,---,0.00,VWS V12.08,2013-05-18 11:26:00,
2013-05-18 07:31:00,60.5,46.1,29.62,North,360,1.0,3.0,59,0.00,,---,0.00,VWS V12.08,2013-05-18 11:31:00,
2013-05-18 07:36:00,60.7,46.3,29.62,North,360,0.0,3.0,59,0.00,,---,0.00,VWS V12.08,2013-05-18 11:36:00,
2013-05-18 07:41:00,61.0,46.6,29.62,North,360,0.0,3.0,59,0.00,,---,0.00,VWS V12.08,2013-05-18 11:41:00,
2013-05-18 07:46:00,61.3,46.9,29.62,North,360,0.0,3.0,59,0.00,,---,0.00,VWS V12.08,2013-05-18 11:46:00,
2013-05-18 07:51:00,61.3,46.9,29.62,North,360,1.0,3.0,59,0.00,,---,0.00,VWS V12.08,2013-05-18 11:51:00,
2013-05-18 07:56:00,61.2,47.7,29.62,North,360,1.0,3.0,61,0.00,,---,0.00,VWS V12.08,2013-05-18 11:56:00,
2013-05-18 08:01:00,60.9,47.8,29.63,North,360,0.0,3.0,62,0.00,,---,0.00,VWS V12.08,2013-05-18 12:01:00,
2013-05-18 08:06:00,60.9,48.2,29.63,North,360,0.0,3.0,63,0.00,,---,0.00,VWS V12.08,2013-05-18 12:06:00,
2013-05-18 08:11:00,60.9,48.2,29.63,North,360,0.0,3.0,63,0.00,,---,0.00,VWS V12.08,2013-05-18 12:11:00,
2013-05-18 08:16:00,60.9,48.2,29.63,North,360,0.0,3.0,63,0.00,,---,0.00,VWS V12.08,2013-05-18 12:16:00,
2013-05-18 08:21:00,60.9,48.2,29.63,North,360,0.0,3.0,63,0.00,,---,0.00,VWS V12.08,2013-05-18 12:21:00,
2013-05-18 08:26:00,61.2,48.5,29.63,North,360,0.0,3.0,63,0.00,,---,0.00,VWS V12.08,2013-05-18 12:26:00,
2013-05-18 08:31:00,61.3,48.6,29.64,North,360,0.0,3.0,63,0.00,,---,0.00,VWS V12.08,2013-05-18 12:31:00,
2013-05-18 08:36:00,61.5,48.8,29.64,North,360,0.0,3.0,63,0.00,,---,0.00,VWS V12.08,2013-05-18 12:36:00,
2013-05-18 08:41:00,61.5,49.2,29.64,North,360,4.0,4.0,64,0.00,,---,0.00,VWS V12.08,2013-05-18 12:41:00,
2013-05-18 08:46:00,61.6,49.3,29.64,North,360,3.0,4.0,64,0.00,,---,0.00,VWS V12.08,2013-05-18 12:46:00,
2013-05-18 08:51:00,61.3,49.0,29.64,North,360,0.0,4.0,64,0.00,,---,0.00,VWS V12.08,2013-05-18 12:51:00,
2013-05-18 08:56:00,61.5,48.8,29.64,North,360,0.0,4.0,63,0.00,,---,0.00,VWS V12.08,2013-05-18 12:56:00,
2013-05-18 09:01:00,61.6,48.9,29.64,North,360,0.0,3.0,63,0.00,,---,0.00,VWS V12.08,2013-05-18 13:01:00,
2013-05-18 09:06:00,62.0,48.8,29.64,North,360,1.0,3.0,62,0.00,,---,0.00,VWS V12.08,2013-05-18 13:06:00,
2013-05-18 09:11:00,62.0,48.4,29.64,North,360,0.0,3.0,61,0.00,,---,0.00,VWS V12.08,2013-05-18 13:11:00,
2013-05-18 09:16:00,62.3,48.7,29.64,North,360,0.0,3.0,61,0.00,,---,0.00,VWS V12.08,2013-05-18 13:16:00,
2013-05-18 09:21:00,62.4,48.8,29.64,North,360,1.0,3.0,61,0.00,,---,0.00,VWS V12.08,2013-05-18 13:21:00,
2013-05-18 09:26:00,62.6,49.0,29.64,North,360,0.0,3.0,61,0.00,,---,0.00,VWS V12.08,2013-05-18 13:26:00,
2013-05-18 09:31:00,63.1,48.6,29.65,North,360,0.0,0.0,59,0.00,,---,0.00,VWS V12.08,2013-05-18 13:31:00,
2013-05-18 09:36:00,63.4,48.8,29.65,North,360,0.0,3.0,59,0.00,,---,0.00,VWS V12.08,2013-05-18 13:36:00,
2013-05-18 09:41:00,63.5,48.9,29.65,North,360,0.0,3.0,59,0.00,,---,0.00,VWS V12.08,2013-05-18 13:41:00,
2013-05-18 09:46:00,63.9,48.8,29.65,North,360,0.0,3.0,58,0.00,,---,0.00,VWS V12.08,2013-05-18 13:46:00,
2013-05-18 09:51:00,64.5,49.0,29.65,North,11,0.0,3.0,57,0.00,,---,0.00,VWS V12.08,2013-05-18 13:51:00,
2013-05-18 09:56:00,64.8,49.2,29.65,NNE,17,0.0,3.0,57,0.00,,---,0.00,VWS V12.08,2013-05-18 13:56:00,
2013-05-18 10:01:00,64.7,49.1,29.65,North,9,1.0,2.0,57,0.00,,---,0.00,VWS V12.08,2013-05-18 14:01:00,
2013-05-18 10:06:00,64.7,48.7,29.65,North,5,2.0,2.0,56,0.00,,---,0.00,VWS V12.08,2013-05-18 14:06:00,
2013-05-18 10:11:00,65.0,48.5,29.65,North,5,0.0,2.0,55,0.00,,---,0.00,VWS V12.08,2013-05-18 14:11:00,
2013-05-18 10:16:00,65.2,46.6,29.65,North,360,2.0,4.0,51,0.00,,---,0.00,VWS V12.08,2013-05-18 14:16:00,
2013-05-18 10:21:00,64.7,46.2,29.65,North,360,0.0,4.0,51,0.00,,---,0.00,VWS V12.08,2013-05-18 14:21:00,
2013-05-18 10:26:00,64.8,45.2,29.65,North,360,4.0,4.0,49,0.00,,---,0.00,VWS V12.08,2013-05-18 14:26:00,
2013-05-18 10:31:00,65.2,45.0,29.65,North,360,1.0,2.0,48,0.00,,---,0.00,VWS V12.08,2013-05-18 14:31:00,
2013-05-18 10:36:00,65.0,43.7,29.65,North,360,2.0,8.0,46,0.00,,---,0.00,VWS V12.08,2013-05-18 14:36:00,
2013-05-18 10:41:00,64.8,43.6,29.65,North,360,0.0,8.0,46,0.00,,---,0.00,VWS V12.08,2013-05-18 14:41:00,
2013-05-18 10:46:00,65.3,43.4,29.65,North,360,5.0,8.0,45,0.00,,---,0.00,VWS V12.08,2013-05-18 14:46:00,
2013-05-18 10:51:00,65.2,43.9,29.65,North,360,0.0,8.0,46,0.00,,---,0.00,VWS V12.08,2013-05-18 14:51:00,
2013-05-18 10:56:00,65.3,44.0,29.65,North,360,0.0,8.0,46,0.00,,---,0.00,VWS V12.08,2013-05-18 14:56:00,
2013-05-18 11:01:00,65.3,44.0,29.65,North,360,3.0,4.0,46,0.00,,---,0.00,VWS V12.08,2013-05-18 15:01:00,
2013-05-18 11:06:00,64.8,44.7,29.65,North,360,0.0,7.0,48,0.00,,---,0.00,VWS V12.08,2013-05-18 15:06:00,
2013-05-18 11:11:00,64.7,44.6,29.65,North,360,2.0,7.0,48,0.00,,---,0.00,VWS V12.08,2013-05-18 15:11:00,
2013-05-18 11:16:00,64.3,44.8,29.65,North,360,5.0,7.0,49,0.00,,---,0.00,VWS V12.08,2013-05-18 15:16:00,
2013-05-18 11:21:00,64.2,45.2,29.65,North,360,0.0,7.0,50,0.00,,---,0.00,VWS V12.08,2013-05-18 15:21:00,
2013-05-18 11:26:00,64.7,45.1,29.65,North,360,0.0,7.0,49,0.00,,---,0.00,VWS V12.08,2013-05-18 15:26:00,
2013-05-18 11:31:00,64.8,45.2,29.65,North,360,0.0,5.0,49,0.00,,---,0.00,VWS V12.08,2013-05-18 15:31:00,
2013-05-18 11:36:00,65.0,45.4,29.65,North,360,3.0,5.0,49,0.00,,---,0.00,VWS V12.08,2013-05-18 15:36:00,
2013-05-18 11:41:00,64.2,45.2,29.65,North,360,3.0,5.0,50,0.00,,---,0.00,VWS V12.08,2013-05-18 15:41:00,
2013-05-18 11:46:00,64.0,45.5,29.65,North,360,2.0,5.0,51,0.00,,---,0.00,VWS V12.08,2013-05-18 15:46:00,
2013-05-18 11:51:00,64.0,45.5,29.65,North,360,1.0,5.0,51,0.00,,---,0.00,VWS V12.08,2013-05-18 15:51:00,
2013-05-18 11:56:00,63.9,46.0,29.65,North,360,2.0,5.0,52,0.00,,---,0.00,VWS V12.08,2013-05-18 15:56:00,
2013-05-18 12:01:00,63.5,46.1,29.65,North,360,0.0,4.0,53,0.00,,---,0.00,VWS V12.08,2013-05-18 16:01:00,
2013-05-18 12:06:00,63.7,46.3,29.65,North,360,3.0,7.0,53,0.00,,---,0.00,VWS V12.08,2013-05-18 16:06:00,
2013-05-18 12:11:00,63.7,46.3,29.65,North,360,0.0,7.0,53,0.00,,---,0.00,VWS V12.08,2013-05-18 16:11:00,
2013-05-18 12:16:00,63.9,46.5,29.65,North,360,0.0,7.0,53,0.00,,---,0.00,VWS V12.08,2013-05-18 16:16:00,
2013-05-18 12:21:00,64.0,46.5,29.65,North,360,0.0,7.0,53,0.00,,---,0.00,VWS V12.08,2013-05-18 16:21:00,
2013-05-18 12:26:00,64.2,45.7,29.65,North,360,0.0,7.0,51,0.00,,---,0.00,VWS V12.08,2013-05-18 16:26:00,
2013-05-18 12:31:00,64.2,45.2,29.64,SSE,151,1.0,4.0,50,0.00,,---,0.00,VWS V12.08,2013-05-18 16:31:00,
2013-05-18 12:36:00,64.2,45.7,29.64,North,360,0.0,4.0,51,0.00,,---,0.00,VWS V12.08,2013-05-18 16:36:00,
2013-05-18 12:41:00,64.7,45.7,29.64,North,360,1.0,4.0,50,0.00,,---,0.00,VWS V12.08,2013-05-18 16:41:00,
2013-05-18 12:46:00,65.0,45.4,29.64,North,360,3.0,4.0,49,0.00,,---,0.00,VWS V12.08,2013-05-18 16:46:00,
2013-05-18 12:51:00,64.8,44.7,29.64,North,360,2.0,4.0,48,0.00,,---,0.00,VWS V12.08,2013-05-18 16:51:00,
2013-05-18 12:56:00,64.8,44.7,29.64,North,360,2.0,4.0,48,0.00,,---,0.00,VWS V12.08,2013-05-18 16:56:00,
2013-05-18 13:01:00,64.2,44.7,29.64,North,360,0.0,5.0,49,0.00,,---,0.00,VWS V12.08,2013-05-18 17:01:00,
2013-05-18 13:06:00,64.3,44.8,29.64,North,360,5.0,6.0,49,0.00,,---,0.00,VWS V12.08,2013-05-18 17:06:00,
2013-05-18 13:11:00,64.2,44.7,29.64,North,360,0.0,6.0,49,0.00,,---,0.00,VWS V12.08,2013-05-18 17:11:00,
2013-05-18 13:16:00,64.5,44.4,29.64,North,360,4.0,6.0,48,0.00,,---,0.00,VWS V12.08,2013-05-18 17:16:00,
2013-05-18 13:21:00,64.0,44.5,29.64,North,360,0.0,7.0,49,0.00,,---,0.00,VWS V12.08,2013-05-18 17:21:00,
2013-05-18 13:26:00,64.0,44.5,29.64,North,360,5.0,7.0,49,0.00,,---,0.00,VWS V12.08,2013-05-18 17:26:00,
2013-05-18 13:31:00,64.0,44.5,29.64,North,360,4.0,4.0,49,0.00,,---,0.00,VWS V12.08,2013-05-18 17:31:00,
2013-05-18 13:36:00,63.9,44.4,29.64,North,360,2.0,6.0,49,0.00,,---,0.00,VWS V12.08,2013-05-18 17:36:00,
2013-05-18 13:41:00,63.7,44.7,29.64,North,360,3.0,6.0,50,0.00,,---,0.00,VWS V12.08,2013-05-18 17:41:00,
2013-05-18 13:46:00,63.5,45.1,29.64,North,360,0.0,7.0,51,0.00,,---,0.00,VWS V12.08,2013-05-18 17:46:00,
2013-05-18 13:51:00,63.4,46.0,29.64,North,360,2.0,9.0,53,0.00,,---,0.00,VWS V12.08,2013-05-18 17:51:00,
2013-05-18 13:56:00,63.2,45.8,29.64,North,360,2.0,9.0,53,0.00,,---,0.00,VWS V12.08,2013-05-18 17:56:00,
2013-05-18 14:01:00,63.2,47.3,29.64,North,360,1.0,6.0,56,0.00,,---,0.00,VWS V12.08,2013-05-18 18:01:00,
2013-05-18 14:06:00,62.9,47.5,29.64,North,360,0.0,6.0,57,0.00,,---,0.00,VWS V12.08,2013-05-18 18:06:00,
2013-05-18 14:11:00,62.7,47.7,29.64,North,360,1.0,6.0,58,0.00,,---,0.00,VWS V12.08,2013-05-18 18:11:00,
2013-05-18 14:16:00,62.9,48.8,29.64,North,360,1.0,6.0,60,0.00,,---,0.00,VWS V12.08,2013-05-18 18:16:00,
2013-05-18 14:21:00,62.9,49.7,29.64,North,360,2.0,6.0,62,0.00,,---,0.00,VWS V12.08,2013-05-18 18:21:00,
2013-05-18 14:26:00,62.4,49.7,29.64,North,360,2.0,6.0,63,0.00,,---,0.00,VWS V12.08,2013-05-18 18:26:00,
2013-05-18 14:31:00,62.3,50.0,29.64,North,360,0.0,4.0,64,0.00,,---,0.00,VWS V12.08,2013-05-18 18:31:00,
2013-05-18 14:36:00,62.0,50.1,29.64,North,360,0.0,5.0,65,0.00,,---,0.00,VWS V12.08,2013-05-18 18:36:00,
2013-05-18 14:41:00,62.0,50.9,29.64,North,360,3.0,5.0,67,0.00,,---,0.00,VWS V12.08,2013-05-18 18:41:00,
2013-05-18 14:46:00,61.8,50.3,29.64,North,360,1.0,5.0,66,0.01,,---,0.01,VWS V12.08,2013-05-18 18:46:00,
2013-05-18 14:51:00,61.8,50.7,29.64,North,360,0.0,5.0,67,0.01,,---,0.01,VWS V12.08,2013-05-18 18:51:00,
2013-05-18 14:56:00,62.0,50.9,29.64,North,360,3.0,6.0,67,0.01,,---,0.01,VWS V12.08,2013-05-18 18:56:00,
2013-05-18 15:01:00,61.8,50.7,29.64,North,360,0.0,4.0,67,0.01,,---,0.01,VWS V12.08,2013-05-18 19:01:00,
2013-05-18 15:06:00,61.8,51.1,29.64,North,360,0.0,4.0,68,0.01,,---,0.01,VWS V12.08,2013-05-18 19:06:00,
2013-05-18 15:11:00,61.8,51.1,29.64,North,360,0.0,4.0,68,0.01,,---,0.01,VWS V12.08,2013-05-18 19:11:00,
2013-05-18 15:16:00,61.6,51.0,29.64,ESE,122,3.0,5.0,68,0.01,,---,0.01,VWS V12.08,2013-05-18 19:16:00,
2013-05-18 15:21:00,61.6,51.3,29.64,North,360,3.0,5.0,69,0.01,,---,0.01,VWS V12.08,2013-05-18 19:21:00,
2013-05-18 15:26:00,61.6,51.3,29.64,North,360,0.0,5.0,69,0.01,,---,0.01,VWS V12.08,2013-05-18 19:26:00,
2013-05-18 15:31:00,61.6,51.3,29.64,North,360,0.0,2.0,69,0.01,,---,0.01,VWS V12.08,2013-05-18 19:31:00,
2013-05-18 15:36:00,61.6,51.7,29.64,North,360,0.0,4.0,70,0.01,,---,0.01,VWS V12.08,2013-05-18 19:36:00,
2013-05-18 15:41:00,61.8,51.9,29.64,North,360,0.0,4.0,70,0.01,,---,0.01,VWS V12.08,2013-05-18 19:41:00,
2013-05-18 15:46:00,61.8,51.9,29.65,North,360,0.0,4.0,70,0.01,,---,0.01,VWS V12.08,2013-05-18 19:46:00,
2013-05-18 15:51:00,61.5,51.6,29.65,North,360,0.0,5.0,70,0.01,,---,0.01,VWS V12.08,2013-05-18 19:51:00,
2013-05-18 15:56:00,61.3,51.8,29.65,North,360,3.0,5.0,71,0.01,,---,0.01,VWS V12.08,2013-05-18 19:56:00,
2013-05-18 16:01:00,61.2,52.1,29.65,North,360,0.0,0.0,72,0.00,,---,0.01,VWS V12.08,2013-05-18 20:01:00,
2013-05-18 16:06:00,61.0,51.9,29.65,North,360,2.0,9.0,72,0.00,,---,0.01,VWS V12.08,2013-05-18 20:06:00,
2013-05-18 16:11:00,61.2,51.7,29.65,North,360,0.0,9.0,71,0.00,,---,0.01,VWS V12.08,2013-05-18 20:11:00,
2013-05-18 16:16:00,60.7,51.2,29.65,North,360,0.0,9.0,71,0.00,,---,0.01,VWS V12.08,2013-05-18 20:16:00,
2013-05-18 16:21:00,60.9,51.8,29.65,North,360,0.0,9.0,72,0.00,,---,0.01,VWS V12.08,2013-05-18 20:21:00,
2013-05-18 16:26:00,60.9,51.8,29.65,North,360,6.0,9.0,72,0.00,,---,0.01,VWS V12.08,2013-05-18 20:26:00,
2013-05-18 16:31:00,60.9,51.5,29.65,North,360,1.0,3.0,71,0.00,,---,0.01,VWS V12.08,2013-05-18 20:31:00,
2013-05-18 16:36:00,61.0,51.5,29.65,SSE,162,0.0,5.0,71,0.00,,---,0.01,VWS V12.08,2013-05-18 20:36:00,
2013-05-18 16:41:00,60.9,51.1,29.65,North,360,0.0,5.0,70,0.00,,---,0.01,VWS V12.08,2013-05-18 20:41:00,
2013-05-18 16:46:00,61.0,51.5,29.65,North,360,0.0,5.0,71,0.00,,---,0.01,VWS V12.08,2013-05-18 20:46:00,
2013-05-18 16:51:00,61.0,51.5,29.65,North,360,1.0,5.0,71,0.00,,---,0.01,VWS V12.08,2013-05-18 20:51:00,
2013-05-18 16:56:00,61.0,51.5,29.65,North,360,3.0,6.0,71,0.00,,---,0.01,VWS V12.08,2013-05-18 20:56:00,
2013-05-18 17:01:00,60.9,51.5,29.65,North,360,2.0,5.0,71,0.00,,---,0.01,VWS V12.08,2013-05-18 21:01:00,
2013-05-18 17:06:00,60.5,51.4,29.65,North,360,0.0,6.0,72,0.00,,---,0.01,VWS V12.08,2013-05-18 21:06:00,
2013-05-18 17:11:00,60.7,51.6,29.65,North,360,0.0,6.0,72,0.00,,---,0.01,VWS V12.08,2013-05-18 21:11:00,
2013-05-18 17:16:00,60.9,51.5,29.65,North,360,0.0,6.0,71,0.00,,---,0.01,VWS V12.08,2013-05-18 21:16:00,
2013-05-18 17:21:00,60.9,51.1,29.65,North,360,0.0,6.0,70,0.00,,---,0.01,VWS V12.08,2013-05-18 21:21:00,
2013-05-18 17:26:00,60.9,50.7,29.65,North,360,0.0,6.0,69,0.00,,---,0.01,VWS V12.08,2013-05-18 21:26:00,
2013-05-18 17:31:00,60.9,50.7,29.64,North,360,6.0,6.0,69,0.00,,---,0.01,VWS V12.08,2013-05-18 21:31:00,
2013-05-18 17:36:00,60.9,51.1,29.64,North,360,3.0,6.0,70,0.00,,---,0.01,VWS V12.08,2013-05-18 21:36:00,
2013-05-18 17:41:00,60.9,51.1,29.64,North,360,4.0,6.0,70,0.00,,---,0.01,VWS V12.08,2013-05-18 21:41:00,
2013-05-18 17:46:00,60.9,51.1,29.64,North,360,0.0,6.0,70,0.00,,---,0.01,VWS V12.08,2013-05-18 21:46:00,
2013-05-18 17:51:00,61.0,51.2,29.64,North,360,3.0,6.0,70,0.00,,---,0.01,VWS V12.08,2013-05-18 21:51:00,
2013-05-18 17:56:00,60.9,51.1,29.64,North,360,4.0,6.0,70,0.00,,---,0.01,VWS V12.08,2013-05-18 21:56:00,
2013-05-18 18:01:00,60.7,50.9,29.64,North,360,0.0,6.0,70,0.00,,---,0.01,VWS V12.08,2013-05-18 22:01:00,
2013-05-18 18:06:00,60.7,50.9,29.64,North,360,0.0,6.0,70,0.00,,---,0.01,VWS V12.08,2013-05-18 22:06:00,
2013-05-18 18:11:00,60.9,51.1,29.64,North,360,0.0,6.0,70,0.00,,---,0.01,VWS V12.08,2013-05-18 22:11:00,
2013-05-18 18:16:00,61.2,51.0,29.63,North,360,0.0,6.0,69,0.00,,---,0.01,VWS V12.08,2013-05-18 22:16:00,
2013-05-18 18:21:00,61.3,50.7,29.63,North,360,1.0,6.0,68,0.00,,---,0.01,VWS V12.08,2013-05-18 22:21:00,
2013-05-18 18:26:00,61.5,50.8,29.63,North,360,1.0,6.0,68,0.00,,---,0.01,VWS V12.08,2013-05-18 22:26:00,
2013-05-18 18:31:00,61.3,51.1,29.63,North,360,0.0,4.0,69,0.00,,---,0.01,VWS V12.08,2013-05-18 22:31:00,
2013-05-18 18:36:00,61.2,51.3,29.63,North,360,0.0,4.0,70,0.00,,---,0.01,VWS V12.08,2013-05-18 22:36:00,
2013-05-18 18:41:00,60.9,51.5,29.63,North,360,1.0,4.0,71,0.00,,---,0.01,VWS V12.08,2013-05-18 22:41:00,
2013-05-18 18:46:00,60.5,51.1,29.64,North,360,1.0,4.0,71,0.00,,---,0.01,VWS V12.08,2013-05-18 22:46:00,
2013-05-18 18:51:00,60.2,51.2,29.64,North,360,0.0,6.0,72,0.00,,---,0.01,VWS V12.08,2013-05-18 22:51:00,
2013-05-18 18:56:00,60.1,51.4,29.64,North,360,0.0,6.0,73,0.00,,---,0.01,VWS V12.08,2013-05-18 22:56:00,
2013-05-18 19:01:00,60.2,51.5,29.63,North,360,3.0,3.0,73,0.00,,---,0.01,VWS V12.08,2013-05-18 23:01:00,
2013-05-18 19:06:00,60.4,51.7,29.63,North,360,5.0,5.0,73,0.00,,---,0.01,VWS V12.08,2013-05-18 23:06:00,
2013-05-18 19:11:00,60.4,51.7,29.63,North,360,0.0,5.0,73,0.00,,---,0.01,VWS V12.08,2013-05-18 23:11:00,
2013-05-18 19:16:00,60.7,52.0,29.64,North,360,0.0,5.0,73,0.00,,---,0.01,VWS V12.08,2013-05-18 23:16:00,
2013-05-18 19:21:00,61.0,51.9,29.64,North,360,0.0,5.0,72,0.00,,---,0.01,VWS V12.08,2013-05-18 23:21:00,
2013-05-18 19:26:00,60.9,51.5,29.64,North,360,0.0,5.0,71,0.00,,---,0.01,VWS V12.08,2013-05-18 23:26:00,
2013-05-18 19:31:00,60.9,51.5,29.64,North,360,0.0,3.0,71,0.00,,---,0.01,VWS V12.08,2013-05-18 23:31:00,
2013-05-18 19:36:00,60.9,51.1,29.64,North,360,3.0,5.0,70,0.00,,---,0.01,VWS V12.08,2013-05-18 23:36:00,
2013-05-18 19:41:00,60.7,50.9,29.64,North,360,1.0,5.0,70,0.00,,---,0.01,VWS V12.08,2013-05-18 23:41:00,
2013-05-18 19:46:00,60.5,51.1,29.65,North,360,3.0,6.0,71,0.00,,---,0.01,VWS V12.08,2013-05-18 23:46:00,
2013-05-18 19:51:00,60.4,51.3,29.65,North,360,2.0,6.0,72,0.00,,---,0.01,VWS V12.08,2013-05-18 23:51:00,
2013-05-18 19:56:00,60.5,51.1,29.65,North,360,0.0,6.0,71,0.00,,---,0.01,VWS V12.08,2013-05-18 23:56:00,
2013-05-18 20:01:00,60.7,51.2,29.65,North,360,0.0,3.0,71,0.00,,---,0.01,VWS V12.08,2013-05-19 00:01:00,
2013-05-18 20:06:00,60.7,51.2,29.65,North,360,3.0,3.0,71,0.00,,---,0.01,VWS V12.08,2013-05-19 00:06:00,
2013-05-18 20:11:00,60.5,51.4,29.65,North,360,0.0,6.0,72,0.00,,---,0.01,VWS V12.08,2013-05-19 00:11:00,
2013-05-18 20:16:00,60.5,51.4,29.65,North,360,3.0,6.0,72,0.00,,---,0.01,VWS V12.08,2013-05-19 00:16:00,
2013-05-18 20:21:00,60.4,51.7,29.65,North,360,1.0,6.0,73,0.00,,---,0.01,VWS V12.08,2013-05-19 00:21:00,
2013-05-18 20:26:00,60.2,51.5,29.65,North,360,6.0,6.0,73,0.00,,---,0.01,VWS V12.08,2013-05-19 00:26:00,
2013-05-18 20:31:00,60.1,51.4,29.65,North,360,2.0,6.0,73,0.00,,---,0.01,VWS V12.08,2013-05-19 00:31:00,
2013-05-18 20:36:00,59.9,51.2,29.65,North,360,1.0,7.0,73,0.00,,---,0.01,VWS V12.08,2013-05-19 00:36:00,
2013-05-18 20:41:00,59.9,51.6,29.65,North,360,1.0,7.0,74,0.00,,---,0.01,VWS V12.08,2013-05-19 00:41:00,
2013-05-18 20:46:00,60.1,51.8,29.64,North,360,2.0,7.0,74,0.00,,---,0.01,VWS V12.08,2013-05-19 00:46:00,
2013-05-18 20:51:00,60.1,51.4,29.64,ESE,115,0.0,7.0,73,0.00,,---,0.01,VWS V12.08,2013-05-19 00:51:00,
2013-05-18 20:56:00,60.1,51.4,29.64,SE,129,0.0,7.0,73,0.00,,---,0.01,VWS V12.08,2013-05-19 00:56:00,
2013-05-18 21:01:00,60.1,51.4,29.64,North,360,0.0,6.0,73,0.00,,---,0.01,VWS V12.08,2013-05-19 01:01:00,
2013-05-18 21:06:00,59.9,51.2,29.64,North,360,4.0,6.0,73,0.00,,---,0.01,VWS V12.08,2013-05-19 01:06:00,
2013-05-18 21:11:00,59.8,51.1,29.64,North,360,0.0,6.0,73,0.00,,---,0.01,VWS V12.08,2013-05-19 01:11:00,
2013-05-18 21:16:00,59.8,50.8,29.64,North,360,1.0,6.0,72,0.00,,---,0.01,VWS V12.08,2013-05-19 01:16:00,
2013-05-18 21:21:00,59.9,50.9,29.64,North,360,0.0,6.0,72,0.00,,---,0.01,VWS V12.08,2013-05-19 01:21:00,
2013-05-18 21:26:00,59.9,50.9,29.64,North,360,2.0,6.0,72,0.00,,---,0.01,VWS V12.08,2013-05-19 01:26:00,
2013-05-18 21:31:00,59.8,50.8,29.65,North,360,0.0,6.0,72,0.00,,---,0.01,VWS V12.08,2013-05-19 01:31:00,
2013-05-18 21:36:00,59.9,50.9,29.65,North,360,0.0,6.0,72,0.00,,---,0.01,VWS V12.08,2013-05-19 01:36:00,
2013-05-18 21:41:00,59.9,50.5,29.65,North,360,0.0,6.0,71,0.00,,---,0.01,VWS V12.08,2013-05-19 01:41:00,
2013-05-18 21:46:00,59.9,50.5,29.65,North,360,0.0,6.0,71,0.00,,---,0.01,VWS V12.08,2013-05-19 01:46:00,
2013-05-18 21:51:00,59.9,50.1,29.65,North,360,0.0,6.0,70,0.00,,---,0.01,VWS V12.08,2013-05-19 01:51:00,
2013-05-18 21:56:00,59.8,50.0,29.65,North,360,0.0,6.0,70,0.00,,---,0.01,VWS V12.08,2013-05-19 01:56:00,
2013-05-18 22:01:00,59.8,50.0,29.65,North,360,3.0,4.0,70,0.00,,---,0.01,VWS V12.08,2013-05-19 02:01:00,
2013-05-18 22:06:00,59.8,49.6,29.65,North,360,0.0,4.0,69,0.00,,---,0.01,VWS V12.08,2013-05-19 02:06:00,
2013-05-18 22:11:00,59.8,49.6,29.65,North,360,2.0,4.0,69,0.00,,---,0.01,VWS V12.08,2013-05-19 02:11:00,
2013-05-18 22:16:00,59.8,49.6,29.65,North,360,0.0,4.0,69,0.00,,---,0.01,VWS V12.08,2013-05-19 02:16:00,
2013-05-18 22:21:00,59.9,49.3,29.65,North,360,0.0,4.0,68,0.00,,---,0.01,VWS V12.08,2013-05-19 02:21:00,
2013-05-18 22:26:00,59.9,48.9,29.65,North,360,3.0,4.0,67,0.00,,---,0.01,VWS V12.08,2013-05-19 02:26:00,
2013-05-18 22:31:00,59.9,48.5,29.65,North,360,0.0,5.0,66,0.00,,---,0.01,VWS V12.08,2013-05-19 02:31:00,
2013-05-18 22:36:00,60.1,48.7,29.65,North,360,0.0,5.0,66,0.00,,---,0.01,VWS V12.08,2013-05-19 02:36:00,
2013-05-18 22:41:00,60.1,47.9,29.65,North,360,0.0,5.0,64,0.00,,---,0.01,VWS V12.08,2013-05-19 02:41:00,
2013-05-18 22:46:00,60.1,47.9,29.64,North,360,0.0,5.0,64,0.00,,---,0.01,VWS V12.08,2013-05-19 02:46:00,
2013-05-18 22:51:00,60.1,47.5,29.64,North,360,0.0,5.0,63,0.00,,---,0.01,VWS V12.08,2013-05-19 02:51:00,
2013-05-18 22:56:00,60.1,47.9,29.64,North,360,1.0,5.0,64,0.00,,---,0.01,VWS V12.08,2013-05-19 02:56:00,
2013-05-18 23:01:00,60.2,47.6,29.65,North,360,1.0,4.0,63,0.00,,---,0.01,VWS V12.08,2013-05-19 03:01:00,
2013-05-18 23:06:00,60.2,47.2,29.65,North,360,0.0,4.0,62,0.00,,---,0.01,VWS V12.08,2013-05-19 03:06:00,
2013-05-18 23:11:00,60.2,47.2,29.65,North,360,3.0,4.0,62,0.00,,---,0.01,VWS V12.08,2013-05-19 03:11:00,
2013-05-18 23:16:00,60.1,46.6,29.64,North,360,4.0,4.0,61,0.00,,---,0.01,VWS V12.08,2013-05-19 03:16:00,
2013-05-18 23:21:00,59.9,46.4,29.64,North,360,3.0,4.0,61,0.00,,---,0.01,VWS V12.08,2013-05-19 03:21:00,
2013-05-18 23:26:00,59.9,46.0,29.64,North,360,2.0,5.0,60,0.00,,---,0.01,VWS V12.08,2013-05-19 03:26:00,
2013-05-18 23:31:00,59.8,45.9,29.64,North,360,3.0,5.0,60,0.00,,---,0.01,VWS V12.08,2013-05-19 03:31:00,
2013-05-18 23:36:00,59.8,45.9,29.64,North,360,0.0,5.0,60,0.00,,---,0.01,VWS V12.08,2013-05-19 03:36:00,
2013-05-18 23:41:00,59.6,45.7,29.64,North,360,0.0,5.0,60,0.00,,---,0.01,VWS V12.08,2013-05-19 03:41:00,
2013-05-18 23:46:00,59.8,46.3,29.64,North,360,0.0,5.0,61,0.00,,---,0.01,VWS V12.08,2013-05-19 03:46:00,
2013-05-18 23:51:00,59.9,46.4,29.64,North,360,1.0,5.0,61,0.00,,---,0.01,VWS V12.08,2013-05-19 03:51:00,
2013-05-18 23:56:00,59.8,46.3,29.64,North,360,0.0,5.0,61,0.00,,---,0.01,VWS V12.08,2013-05-19 03:56:00,